Regional Weather Roundup
Issued by NWS Sioux Falls, SD

Home | Current Version | Previous Version | Graphics & Text | Print | Product List | Glossary On
Versions: 1 2 3 4 5 6 7 8 9 10 11 12 13 14 15 16 17 18 19 20 21 22 23 24 25 26 27 28 29 30 31 32 33 34 35 36 37 38 39 40 41 42 43 44 45 46 47 48 49 50
126
ASUS43 KFSD 282010
RWRFSD

WEATHER ROUNDUP FOR SE SOUTH DAKOTA/SW MINNESOTA/NW IOWA
NATIONAL WEATHER SERVICE SIOUX FALLS SD
300 PM CDT WED SEP 28 2016

NOTE: "FAIR" INDICATES FEW OR NO CLOUDS BELOW 12,000 FEET WITH NO
SIGNIFICANT WEATHER AND OR OBSTRUCTIONS TO VISIBILITY.


SDZ038>040-050-052>070-282100-
SOUTHEAST SOUTH DAKOTA

CITY           SKY/WX    TMP DP  RH WIND       PRES   REMARKS
BROOKINGS      SUNNY     60  44  55 N12       30.26S
CHAMBERLAIN    SUNNY     68  46  45 E5        30.27S
HURON          SUNNY     65  44  46 NE7       30.27S
MADISON        FAIR      61  45  55 NE10G16   30.27R
MITCHELL       SUNNY     65  44  46 N7        30.27F
SIOUX FALLS    MOSUNNY   64  45  49 VRB6G17   30.25S
WINNER         FAIR      71  37  28 NE9       30.26F
YANKTON        SUNNY     64  45  48 N8G17     30.23S
$$

MNZ071-072-080-081-089-090-097-098-282100-
SOUTHWEST MINNESOTA

CITY           SKY/WX    TMP DP  RH WIND       PRES   REMARKS
FAIRMONT       CLOUDY    60  46  59 NE13G20   30.22R
JACKSON        CLOUDY    61  45  55 N17G24    30.23R
LUVERNE        PTSUNNY   55  43  62 NE10      30.27R
MARSHALL       CLOUDY    59  47  64 N9        30.27S
MONTEVIDEO     PTSUNNY   66  46  48 NE10G18   30.28R
PIPESTONE      MOSUNNY   57  45  62 NE10G17   30.27R
REDWOOD FALLS  CLOUDY    64  46  52 N12G17    30.23S
TRACY          PTSUNNY   62  49  62 N10       30.26S
WINDOM         PTSUNNY   63  46  55 N13G21    30.23S
WORTHINGTON    CLOUDY    57  46  66 N15       30.25R
$$

IAZ001>003-012>014-020>022-031-032-NEZ013-014-SDZ071-282100-
NORTHWEST IOWA

CITY           SKY/WX    TMP DP  RH WIND       PRES   REMARKS
CHEROKEE       CLOUDY    60  48  64 N15       30.22S
DENISON        MOSUNNY   61  48  63 N13       30.19R
ESTHERVILLE    CLOUDY    59  48  67 N17       30.22R
LE MARS        MOSUNNY   61  46  59 N10       30.25S
ORANGE CITY    PTSUNNY   57  46  67 N7        30.25S
SHELDON        CLOUDY    61  46  59 N8G15     30.23S
SIOUX CITY     MOSUNNY   65  48  54 N12       30.23S
SPENCER        PTSUNNY   62  48  60 N16G22    30.22R
STORM LAKE     SUNNY     61  46  59 N12G18    30.21R
$$

ABBREVIATIONS USED IN REMARKS
   TC - TEMPERATURE IN CELSIUS
  WCI - WIND CHILL INDEX
   HX - HEAT INDEX
  VSB - VISIBILITY





USA.gov is the U.S. government's official web portal to all federal, state and local government web resources and services.